| time (UTC) | temp F | wind direction | speed knots | gust knots | rain 1hr in | rain 24hr in | rain mn in | humidity % | barometer mb |
| 20260507014534 | 64 | 234 | 1.7 | 6.1 | 0.00 | 0.00 | 0.00 | 77 | 1016.7 |
| 20260507013033 | 68 | 286 | 0.9 | 7.0 | 0.00 | 0.00 | 0.00 | 75 | 1016.7 |
| 20260507011538 | 67 | 321 | 0.9 | 7.0 | 0.00 | 0.00 | 0.00 | 76 | 1016.7 |
| 20260507010048 | 67 | 153 | 0.9 | 7.8 | 0.00 | 0.00 | 0.00 | 74 | 1016.7 |
| 20260507004535 | 68 | 275 | 1.7 | 6.1 | 0.00 | 0.00 | 0.00 | 74 | 1016.8 |
| 20260507003032 | 68 | 270 | 1.7 | 7.8 | 0.00 | 0.00 | 0.00 | 74 | 1016.7 |
| 20260507001530 | 68 | 286 | 2.6 | 8.7 | 0.00 | 0.00 | 0.00 | 74 | 1016.6 |
| 20260507000029 | 68 | 224 | 2.6 | 10.4 | 0.00 | 0.00 | 0.00 | 73 | 1016.7 |
| 20260506234531 | 69 | 282 | 0.9 | 5.2 | 0.00 | 0.00 | 0.00 | 72 | 1016.8 |
| 20260506233027 | 70 | 282 | 0.9 | 7.8 | 0.00 | 0.00 | 0.00 | 71 | 1016.9 |
| 20260506231525 | 69 | 250 | 1.7 | 7.8 | 0.00 | 0.00 | 0.00 | 71 | 1016.9 |
| 20260506230027 | 70 | 200 | 0.9 | 8.7 | 0.00 | 0.00 | 0.00 | 71 | 1017.1 |
| 20260506224522 | 69 | 296 | 1.7 | 8.7 | 0.00 | 0.00 | 0.00 | 72 | 1017.3 |
| 20260506223021 | 69 | 243 | 3.5 | 8.7 | 0.00 | 0.00 | 0.00 | 71 | 1017.5 |
| 20260506221520 | 69 | 258 | 3.5 | 10.4 | 0.00 | 0.00 | 0.00 | 71 | 1017.7 |
| 20260506220025 | 69 | 155 | 2.6 | 10.4 | 0.00 | 0.00 | 0.00 | 70 | 1017.7 |
| 20260506214517 | 70 | 257 | 1.7 | 13.0 | 0.00 | 0.00 | 0.00 | 69 | 1018.1 |
| 20260506213016 | 71 | 331 | 1.7 | 7.0 | 0.00 | 0.00 | 0.00 | 68 | 1018.2 |
| 20260506211514 | 71 | 229 | 2.6 | 7.8 | 0.00 | 0.00 | 0.00 | 69 | 1018.3 |
| 20260506210014 | 71 | 312 | 1.7 | 8.7 | 0.00 | 0.00 | 0.00 | 67 | 1018.3 |
| 20260506204512 | 71 | 150 | 1.7 | 7.0 | 0.00 | 0.00 | 0.00 | 68 | 1018.3 |
| 20260506203012 | 71 | 254 | 0.9 | 8.7 | 0.00 | 0.00 | 0.00 | 70 | 1018.7 |
| 20260506201525 | 70 | 238 | 1.7 | 8.7 | 0.00 | 0.00 | 0.00 | 68 | 1018.9 |
| 20260506200006 | 69 | 209 | 1.7 | 8.7 | 0.00 | 0.00 | 0.00 | 69 | 1019.0 |
| 20260506194506 | 69 | 180 | 1.7 | 7.0 | 0.00 | 0.00 | 0.00 | 69 | 1019.2 |
| 20260506193116 | 68 | 275 | 0.0 | 7.8 | 0.00 | 0.00 | 0.00 | 70 | 1019.3 |
| 20260506191613 | 67 | 238 | 2.6 | 8.7 | 0.00 | 0.00 | 0.00 | 71 | 1019.4 |
| 20260506190055 | 66 | 248 | 2.6 | 8.7 | 0.00 | 0.00 | 0.00 | 71 | 1019.3 |
| 20260506184605 | 66 | 234 | 2.6 | 8.7 | 0.00 | 0.00 | 0.00 | 72 | 1019.5 |
| 20260506183048 | 65 | 229 | 2.6 | 7.0 | 0.00 | 0.00 | 0.00 | 73 | 1019.6 |
| 20260506181546 | 65 | 225 | 1.7 | 7.0 | 0.00 | 0.00 | 0.00 | 75 | 1019.7 |
| 20260506180043 | 64 | 243 | 2.6 | 7.0 | 0.00 | 0.00 | 0.00 | 77 | 1019.7 |
| 20260506174541 | 63 | 223 | 1.7 | 5.2 | 0.00 | 0.00 | 0.00 | 77 | 1019.6 |
| 20260506173046 | 63 | 219 | 1.7 | 6.1 | 0.00 | 0.00 | 0.00 | 78 | 1019.7 |
| 20260506171554 | 63 | 256 | 0.9 | 4.3 | 0.00 | 0.00 | 0.00 | 77 | 1019.7 |
| 20260506170043 | 62 | 246 | 0.9 | 4.3 | 0.00 | 0.00 | 0.00 | 78 | 1019.7 |
| 20260506164539 | 63 | 200 | 1.7 | 4.3 | 0.00 | 0.00 | 0.00 | 77 | 1019.6 |
| 20260506163037 | 62 | 209 | 0.0 | 4.3 | 0.00 | 0.00 | 0.00 | 79 | 1019.8 |
| 20260506161536 | 61 | 211 | 0.0 | 2.6 | 0.00 | 0.00 | 0.00 | 79 | 1019.8 |
| 20260506160032 | 61 | 248 | 0.9 | 3.5 | 0.00 | 0.00 | 0.00 | 81 | 1019.9 |
| 20260506154530 | 60 | 179 | 0.9 | 3.5 | 0.00 | 0.00 | 0.00 | 83 | 1019.9 |
| 20260506153028 | 60 | 218 | 0.0 | 1.7 | 0.00 | 0.00 | 0.00 | 84 | 1019.8 |
| 20260506151527 | 59 | 161 | 0.0 | 1.7 | 0.00 | 0.00 | 0.00 | 85 | 1019.8 |
| 20260506150027 | 59 | 144 | 0.0 | 0.0 | 0.00 | 0.00 | 0.00 | 87 | 1019.8 |
| 20260506144519 | 58 | 167 | 0.0 | 0.0 | 0.00 | 0.00 | 0.00 | 90 | 1019.9 |
| 20260506143018 | 56 | 154 | 0.0 | 0.0 | 0.00 | 0.00 | 0.00 | 90 | 1019.9 |
| 20260506141514 | 56 | 355 | 0.0 | 0.9 | 0.00 | 0.00 | 0.00 | 90 | 1019.8 |
| 20260506140018 | 55 | 355 | 0.0 | 0.9 | 0.00 | 0.00 | 0.00 | 90 | 1019.6 |
| 20260506134512 | 55 | 33 | 0.0 | 2.6 | 0.00 | 0.00 | 0.00 | 91 | 1019.4 |
| 20260506133015 | 55 | 15 | 0.0 | 0.0 | 0.00 | 0.00 | 0.00 | 91 | 1019.3 |
| 20260506131510 | 55 | 339 | 0.0 | 0.0 | 0.00 | 0.00 | 0.00 | 91 | 1019.1 |
| 20260506130009 | 54 | 338 | 0.0 | 0.0 | 0.00 | 0.00 | 0.00 | 91 | 1019.2 |
| 20260506124507 | 54 | 32 | 0.0 | 0.0 | 0.00 | 0.00 | 0.00 | 92 | 1019.0 |
| 20260506123007 | 54 | 332 | 0.0 | 0.0 | 0.00 | 0.00 | 0.00 | 92 | 1019.0 |
| 20260506121603 | 54 | 332 | 0.0 | 0.0 | 0.00 | 0.00 | 0.00 | 92 | 1018.9 |
| 20260506120003 | 54 | 330 | 0.0 | 0.0 | 0.00 | 0.00 | 0.00 | 92 | 1018.7 |
| 20260506114503 | 55 | 343 | 0.0 | 0.0 | 0.00 | 0.00 | 0.00 | 92 | 1018.6 |
| 20260506113101 | 55 | 343 | 0.0 | 0.0 | 0.00 | 0.00 | 0.00 | 92 | 1018.7 |
| 20260506113001 | 54 | 342 | 0.0 | 0.0 | 0.00 | 0.00 | 0.00 | 92 | 1018.6 |
| 20260506111600 | 54 | 342 | 0.0 | 0.0 | 0.00 | 0.00 | 0.00 | 92 | 1018.6 |
| 20260506110100 | 54 | 342 | 0.0 | 0.0 | 0.00 | 0.00 | 0.00 | 92 | 1018.5 |
| 20260506104606 | 54 | 11 | 0.0 | 0.0 | 0.00 | 0.00 | 0.00 | 92 | 1018.4 |
| 20260506103100 | 54 | 11 | 0.0 | 0.0 | 0.00 | 0.00 | 0.00 | 92 | 1018.4 |
| 20260506101558 | 53 | 11 | 0.0 | 0.0 | 0.00 | 0.00 | 0.00 | 93 | 1018.5 |
| 20260506100111 | 53 | 11 | 0.0 | 0.0 | 0.00 | 0.00 | 0.00 | 92 | 1018.6 |
| 20260506094556 | 53 | 10 | 0.0 | 0.9 | 0.00 | 0.00 | 0.00 | 92 | 1018.5 |
| 20260506093058 | 53 | 349 | 0.0 | 0.0 | 0.00 | 0.00 | 0.00 | 92 | 1018.7 |
| 20260506091556 | 53 | 231 | 0.0 | 0.0 | 0.00 | 0.00 | 0.00 | 92 | 1018.5 |
| 20260506090053 | 53 | 229 | 0.0 | 0.0 | 0.00 | 0.00 | 0.00 | 92 | 1018.4 |
| 20260506084550 | 53 | 229 | 0.0 | 0.0 | 0.00 | 0.00 | 0.00 | 91 | 1018.4 |
| 20260506083050 | 53 | 229 | 0.0 | 0.0 | 0.00 | 0.00 | 0.00 | 90 | 1018.4 |
| 20260506081549 | 54 | 229 | 0.0 | 0.0 | 0.00 | 0.00 | 0.00 | 90 | 1018.4 |
| 20260506073039 | 56 | 229 | 0.0 | 0.0 | 0.00 | 0.00 | 0.00 | 89 | 1018.1 |
| 20260506071538 | 56 | 229 | 0.0 | 0.0 | 0.00 | 0.00 | 0.00 | 88 | 1018.1 |
| 20260506061532 | 57 | 229 | 0.0 | 0.0 | 0.00 | 0.00 | 0.00 | 87 | 1017.8 |
| 20260506044530 | 58 | 281 | 0.0 | 0.0 | 0.00 | 0.00 | 0.00 | 85 | 1017.2 |
| 20260506043025 | 58 | 281 | 0.0 | 0.0 | 0.00 | 0.00 | 0.00 | 85 | 1017.1 |
| 20260506041523 | 58 | 275 | 0.0 | 0.0 | 0.00 | 0.00 | 0.00 | 85 | 1017.1 |
| 20260506040020 | 58 | 275 | 0.0 | 0.9 | 0.00 | 0.00 | 0.00 | 84 | 1016.8 |
| 20260506034520 | 58 | 281 | 0.0 | 0.0 | 0.00 | 0.00 | 0.00 | 84 | 1016.6 |
| 20260506033021 | 58 | 285 | 0.0 | 1.7 | 0.00 | 0.00 | 0.00 | 84 | 1016.4 |
| 20260506031528 | 59 | 277 | 0.0 | 0.0 | 0.00 | 0.00 | 0.00 | 83 | 1016.2 |
| 20260506030041 | 59 | 295 | 0.0 | 0.0 | 0.00 | 0.00 | 0.00 | 83 | 1016.0 |
| 20260506024524 | 59 | 241 | 0.0 | 0.0 | 0.00 | 0.00 | 0.00 | 83 | 1015.9 |
| 20260506023015 | 59 | 217 | 0.0 | 0.0 | 0.00 | 0.00 | 0.00 | 83 | 1015.8 |
| 20260506021514 | 59 | 249 | 0.0 | 0.9 | 0.00 | 0.00 | 0.00 | 82 | 1015.9 |
| 20260506020014 | 59 | 268 | 0.0 | 2.6 | 0.00 | 0.00 | 0.00 | 82 | 1015.9 |